Regional Weather Roundup
Issued by NWS

Home | Current Version | Previous Version | Text Only | Print | Product List | Glossary Off
Versions: 1 2 3 4 5 6 7 8 9 10 11 12 13 14 15 16 17 18 19 20 21 22 23 24 25 26 27 28 29 30 31 32 33 34 35 36 37 38 39 40 41 42 43 44 45 46 47 48 49 50

000
ASUS43 KLSX 200107
RWRMO

WEATHER SUMMARY FOR MISSOURI
NATIONAL WEATHER SERVICE SPRINGFIELD MO
800 PM CDT SUN OCT 19 2014

NOTE: "FAIR" INDICATES FEW OR NO CLOUDS BELOW 12,000 FEET WITH NO
       SIGNIFICANT WEATHER AND/OR OBSTRUCTIONS TO VISIBILITY.
       CURRENT SKY AND/OR WEATHER CONDITIONS ARE NOT AVAILABLE FOR
       CHILLICOTHE AND FARMINGTON.

MOZ001>031-035>038-043-044-053-054-200200-
...NORTHERN AND WESTERN MISSOURI...

CITY           SKY/WX    TMP DP  RH WIND       PRES   REMARKS
KANSAS CTY INT PTCLDY    54  47  77 S10       30.00F
KANSAS C DTWN  PTCLDY    63  48  58 S6        30.00F
LEE`S SUMMIT   MOCLDY    62  49  62 S6        30.02F
ST JOSEPH      PTCLDY    57  48  72 S3        29.99S
CHILLICOTHE      N/A     54  49  83 CALM      30.01S
KIRKSVILLE     CLOUDY    55  46  71 S3        30.00S

$$
MOZ066>068-077>081-088>096-101>105-200200-
...SOUTHWEST MISSOURI...

CITY           SKY/WX    TMP DP  RH WIND       PRES   REMARKS
SPRINGFIELD    CLEAR     55  49  80 S7        30.07S
JOPLIN         PTCLDY    59  53  80 S6        30.07S

$$
MOZ032>034-039>042-045>050-055>058-069>072-200200-
...CENTRAL MISSOURI...

CITY           SKY/WX    TMP DP  RH WIND       PRES   REMARKS
COLUMBIA       PTCLDY    57  43  59 S5        30.04S
JEFFERSON CITY PTCLDY    55  46  71 E5        30.04S
ROLLA          PTCLDY    53  44  71 S9        30.05S
SEDALIA        PTCLDY    58  48  69 SW7       30.04S
WHITEMAN AFB   PTCLDY    53  48  83 SW5       30.03S
OSAGE BEACH    CLEAR     57  46  67 S6        30.05F

$$
MOZ051-052-059>065-200200-
...EAST CENTRAL MISSOURI...

CITY           SKY/WX    TMP DP  RH WIND       PRES   REMARKS
ST LOUIS INTL  PTCLDY    56  47  71 S3        30.06S
SPIRIT OF STL  PTCLDY    51  47  86 CALM      30.04F
ST CHARLES     PTCLDY    54  47  77 S3        30.04F

$$
MOZ072>076-082>087-097>100-106>115-200200-
...SOUTH CENTRAL AND SOUTHEAST MISSOURI...

CITY           SKY/WX    TMP DP  RH WIND       PRES   REMARKS
CAPE GIRARDEAU CLOUDY    53  46  77 S3        30.10F
FARMINGTON     PTCLDY    52  43  71 S7        30.09F
POPLAR BLUFF   MOCLDY    55  46  71 CALM      30.10S
WEST PLAINS    PTCLDY    51  45  79 CALM      30.11S

$$


USA.gov is the U.S. government's official web portal to all federal, state and local government web resources and services.